Radiation Dose at Monitoring Post of Fukushima Daini Nuclear Power Station
Date,Time,MP-1(microSv/h),MP-2(microSv/h),MP-3(microSv/h),MP-4(microSv/h),MP-5(microSv/h),MP-6(microSv/h),MP-7(microSv/h),Wind Direction,Wind Velocity(m/s),Rain
2018/12/08,00:00,0.241,0.192,0.306,0.292,0.281,0.154,0.095,north-northwest,9.8,No
2018/12/08,00:10,0.240,0.191,0.306,0.293,0.280,0.153,0.095,north-northwest,9.0,No
2018/12/08,00:20,0.242,0.192,0.306,0.292,0.280,0.155,0.094,north-northwest,7.0,No
2018/12/08,00:30,0.240,0.192,0.306,0.294,0.279,0.154,0.095,north,4.7,No
2018/12/08,00:40,0.239,0.192,0.307,0.293,0.280,0.155,0.094,north,4.9,No
2018/12/08,00:50,0.240,0.193,0.306,0.293,0.279,0.154,0.095,north,5.3,No
2018/12/08,01:00,0.240,0.192,0.306,0.293,0.279,0.154,0.093,north,6.2,No
2018/12/08,01:10,0.240,0.193,0.305,0.293,0.280,0.156,0.094,north,4.2,No
2018/12/08,01:20,0.240,0.192,0.305,0.293,0.281,0.155,0.094,north,6.6,No
2018/12/08,01:30,0.240,0.192,0.307,0.293,0.279,0.155,0.093,north,6.5,No
2018/12/08,01:40,0.241,0.192,0.305,0.293,0.279,0.154,0.094,north,6.0,No
2018/12/08,01:50,0.240,0.192,0.305,0.293,0.279,0.154,0.094,north,7.3,No
2018/12/08,02:00,0.239,0.192,0.307,0.292,0.279,0.155,0.094,north,6.2,No
2018/12/08,02:10,0.239,0.192,0.307,0.293,0.278,0.154,0.094,north-northwest,5.0,No
2018/12/08,02:20,0.239,0.192,0.306,0.293,0.278,0.154,0.095,north-northwest,4.5,No
2018/12/08,02:30,0.240,0.192,0.304,0.293,0.279,0.154,0.094,north-northwest,5.4,No
2018/12/08,02:40,0.240,0.192,0.306,0.292,0.280,0.155,0.094,north-northwest,5.4,No
2018/12/08,02:50,0.240,0.192,0.306,0.293,0.277,0.154,0.095,north-northwest,5.6,No
2018/12/08,03:00,0.238,0.193,0.305,0.293,0.278,0.154,0.094,north-northwest,5.5,No
2018/12/08,03:10,0.238,0.191,0.303,0.292,0.279,0.154,0.094,north-northwest,5.3,No
2018/12/08,03:20,0.239,0.191,0.304,0.292,0.278,0.155,0.095,north-northwest,4.2,No
2018/12/08,03:30,0.239,0.192,0.307,0.293,0.278,0.153,0.095,north-northwest,4.1,No
2018/12/08,03:40,0.240,0.192,0.304,0.292,0.279,0.155,0.094,north-northwest,4.7,No
2018/12/08,03:50,0.240,0.190,0.306,0.292,0.278,0.154,0.094,north-northwest,6.0,No
2018/12/08,04:00,0.240,0.192,0.305,0.294,0.279,0.155,0.094,north-northwest,6.1,No
2018/12/08,04:10,0.240,0.191,0.303,0.292,0.279,0.154,0.094,north-northwest,5.9,No
2018/12/08,04:20,0.240,0.191,0.305,0.292,0.278,0.155,0.094,north-northwest,6.1,No
2018/12/08,04:30,0.239,0.191,0.303,0.292,0.278,0.155,0.094,north-northwest,6.5,No
2018/12/08,04:40,0.240,0.190,0.305,0.292,0.278,0.155,0.095,north-northwest,7.0,No
2018/12/08,04:50,0.240,0.192,0.305,0.292,0.278,0.154,0.094,north-northwest,7.1,No
2018/12/08,05:00,0.239,0.191,0.306,0.293,0.279,0.154,0.095,north,6.7,No
2018/12/08,05:10,0.239,0.191,0.305,0.292,0.279,0.154,0.094,north-northwest,6.7,No
2018/12/08,05:20,0.240,0.192,0.306,0.293,0.280,0.154,0.094,north-northwest,5.3,No
2018/12/08,05:30,0.239,0.191,0.306,0.293,0.279,0.153,0.094,north,4.5,No
2018/12/08,05:40,0.238,0.191,0.306,0.292,0.278,0.154,0.094,north-northwest,4.5,No
2018/12/08,05:50,0.240,0.190,0.305,0.293,0.279,0.155,0.094,north-northwest,4.3,No
2018/12/08,06:00,0.240,0.192,0.306,0.292,0.279,0.154,0.094,north,5.0,No
2018/12/08,06:10,0.239,0.192,0.306,0.292,0.279,0.154,0.094,north-northwest,5.6,No
2018/12/08,06:20,0.240,0.192,0.305,0.293,0.278,0.154,0.094,north-northwest,5.5,No
2018/12/08,06:30,0.240,0.192,0.305,0.294,0.278,0.154,0.094,north-northwest,4.8,No
2018/12/08,06:40,0.240,0.192,0.306,0.293,0.279,0.155,0.095,north-northwest,4.6,No
2018/12/08,06:50,0.239,0.192,0.307,0.293,0.278,0.155,0.094,north-northwest,4.8,No
2018/12/08,07:00,0.240,0.192,0.306,0.292,0.278,0.154,0.094,north-northwest,4.1,No
2018/12/08,07:10,0.240,0.191,0.306,0.293,0.279,0.155,0.094,north-northwest,4.8,No
2018/12/08,07:20,0.241,0.193,0.305,0.293,0.278,0.155,0.094,north-northwest,4.8,No
2018/12/08,07:30,0.239,0.192,0.307,0.293,0.279,0.155,0.094,north-northwest,5.1,No
2018/12/08,07:40,0.240,0.191,0.305,0.292,0.279,0.155,0.094,north-northwest,5.2,No
2018/12/08,07:50,0.240,0.192,0.305,0.294,0.278,0.154,0.094,north-northwest,5.2,No
2018/12/08,08:00,0.240,0.193,0.305,0.293,0.277,0.154,0.093,north-northwest,4.4,No
2018/12/08,08:10,0.238,0.191,0.306,0.293,0.280,0.154,0.094,north-northwest,4.5,No
2018/12/08,08:20,0.239,0.192,0.305,0.292,0.279,0.155,0.094,north-northwest,4.8,No
2018/12/08,08:30,0.240,0.192,0.304,0.294,0.278,0.154,0.094,north-northwest,4.6,No
2018/12/08,08:40,0.240,0.191,0.305,0.293,0.279,0.154,0.094,north-northwest,4.5,No
2018/12/08,08:50,0.240,0.192,0.305,0.292,0.279,0.154,0.095,north-northwest,4.3,No
2018/12/08,09:00,0.240,0.192,0.305,0.293,0.279,0.155,0.094,north-northwest,3.9,No
2018/12/08,09:10,0.239,0.192,0.305,0.294,0.277,0.155,0.095,north-northwest,3.8,No
2018/12/08,09:20,0.240,0.191,0.306,0.292,0.278,0.154,0.095,north-northwest,3.2,No
2018/12/08,09:30,0.242,0.191,0.305,0.292,0.279,0.155,0.095,north-northwest,3.4,No
2018/12/08,09:40,0.241,0.193,0.304,0.292,0.277,0.154,0.095,north-northwest,2.9,No
2018/12/08,09:50,0.241,0.192,0.305,0.293,0.278,0.154,0.094,north-northwest,3.0,No
2018/12/08,10:00,0.242,0.190,0.306,0.293,0.278,0.154,0.093,north-northwest,3.7,No
2018/12/08,10:10,0.240,0.191,0.306,0.292,0.277,0.155,0.094,north-northwest,3.0,No
2018/12/08,10:20,0.241,0.192,0.305,0.293,0.278,0.154,0.094,north-northwest,2.6,No
2018/12/08,10:30,0.242,0.191,0.305,0.292,0.279,0.154,0.094,north-northwest,2.5,No
2018/12/08,10:40,0.241,0.192,0.305,0.292,0.279,0.154,0.095,north-northwest,2.1,No
2018/12/08,10:50,0.240,0.193,0.304,0.295,0.280,0.154,0.094,north-northeast,3.1,No
2018/12/08,11:00,0.241,0.192,0.303,0.293,0.280,0.154,0.093,north-northeast,3.4,No
2018/12/08,11:10,0.241,0.191,0.306,0.291,0.280,0.155,0.094,north-northeast,2.9,No
2018/12/08,11:20,0.239,0.193,0.306,0.294,0.279,0.156,0.093,northeast,3.1,No
2018/12/08,11:30,0.241,0.191,0.305,0.292,0.279,0.155,0.095,east-northeast,2.7,No
2018/12/08,11:40,0.240,0.191,0.305,0.291,0.279,0.155,0.094,northeast,1.6,No
2018/12/08,11:50,0.239,0.192,0.305,0.293,0.280,0.155,0.093,northeast,2.4,No
2018/12/08,12:00,0.238,0.192,0.303,0.291,0.277,0.156,0.094,northeast,2.8,No
2018/12/08,12:10,0.237,0.192,0.305,0.294,0.279,0.154,0.094,northeast,2.4,No
2018/12/08,12:20,0.239,0.191,0.303,0.291,0.278,0.155,0.094,northeast,2.8,No
2018/12/08,12:30,0.237,0.192,0.306,0.292,0.278,0.155,0.094,east-northeast,3.6,No
2018/12/08,12:40,0.238,0.193,0.304,0.291,0.281,0.155,0.095,east-northeast,2.5,No
2018/12/08,12:50,0.239,0.191,0.305,0.292,0.279,0.155,0.094,northeast,2.4,No
2018/12/08,13:00,0.239,0.191,0.306,0.292,0.281,0.155,0.094,northeast,3.2,No
2018/12/08,13:10,0.239,0.192,0.304,0.291,0.281,0.155,0.094,north-northeast,2.2,No
2018/12/08,13:20,0.240,0.192,0.304,0.292,0.279,0.155,0.094,east-northeast,2.3,No
2018/12/08,13:30,0.241,0.191,0.306,0.291,0.279,0.155,0.094,northeast,2.4,No
2018/12/08,13:40,0.240,0.191,0.305,0.292,0.280,0.154,0.092,northeast,2.2,No
2018/12/08,13:50,0.240,0.191,0.305,0.293,0.279,0.153,0.094,northeast,3.1,No
2018/12/08,14:00,0.241,0.192,0.306,0.291,0.280,0.154,0.094,northeast,2.7,No
2018/12/08,14:10,0.240,0.191,0.304,0.293,0.277,0.155,0.094,northeast,2.5,No
2018/12/08,14:20,0.241,0.191,0.304,0.293,0.280,0.155,0.094,northeast,3.1,No
2018/12/08,14:30,0.239,0.191,0.306,0.292,0.278,0.153,0.095,east-northeast,2.8,No
2018/12/08,14:40,0.239,0.191,0.307,0.293,0.279,0.155,0.093,east-northeast,2.4,No
2018/12/08,14:50,0.238,0.192,0.305,0.294,0.280,0.155,0.094,northeast,3.0,No
2018/12/08,15:00,0.240,0.192,0.306,0.292,0.280,0.154,0.095,north,2.2,No
2018/12/08,15:10,0.241,0.191,0.307,0.295,0.278,0.155,0.094,north,3.4,No
2018/12/08,15:20,0.239,0.192,0.304,0.293,0.279,0.154,0.093,north-northwest,3.5,No
2018/12/08,15:30,0.241,0.192,0.305,0.295,0.280,0.154,0.094,north-northwest,3.2,No
2018/12/08,15:40,0.239,0.191,0.305,0.293,0.279,0.155,0.094,north-northwest,2.2,No
2018/12/08,15:50,0.239,0.192,0.305,0.293,0.279,0.155,0.093,northwest,2.1,No
2018/12/08,16:00,0.239,0.192,0.305,0.293,0.279,0.154,0.094,north,1.3,No
2018/12/08,16:10,0.240,0.192,0.305,0.293,0.278,0.155,0.095,north-northwest,1.2,No
2018/12/08,16:20,0.239,0.192,0.306,0.293,0.278,0.154,0.094,northwest,1.0,No
2018/12/08,16:30,0.239,0.192,0.305,0.293,0.280,0.155,0.094,northwest,1.2,No
2018/12/08,16:40,0.240,0.192,0.305,0.294,0.279,0.154,0.094,northwest,1.2,No
2018/12/08,16:50,0.240,0.192,0.305,0.295,0.278,0.154,0.094,-,CALM,No
2018/12/08,17:00,0.241,0.191,0.306,0.295,0.279,0.155,0.093,northwest,0.8,No
2018/12/08,17:10,0.240,0.192,0.306,0.293,0.279,0.154,0.094,northwest,0.9,No
2018/12/08,17:20,0.240,0.191,0.305,0.293,0.279,0.155,0.094,west,1.1,No
2018/12/08,17:30,0.241,0.192,0.305,0.294,0.279,0.154,0.094,west-southwest,1.2,No
2018/12/08,17:40,0.241,0.191,0.306,0.294,0.279,0.155,0.094,west-southwest,1.2,No
2018/12/08,17:50,0.240,0.191,0.306,0.293,0.278,0.153,0.093,southwest,0.8,No
2018/12/08,18:00,0.241,0.191,0.305,0.292,0.279,0.154,0.093,southwest,0.8,No
2018/12/08,18:10,0.240,0.192,0.304,0.293,0.278,0.155,0.094,southwest,1.2,No
2018/12/08,18:20,0.241,0.192,0.305,0.293,0.279,0.154,0.094,southwest,1.3,No
2018/12/08,18:30,0.240,0.191,0.307,0.294,0.279,0.154,0.094,southwest,0.7,No
2018/12/08,18:40,0.240,0.191,0.305,0.293,0.279,0.154,0.095,south-southwest,1.0,No
2018/12/08,18:50,0.241,0.192,0.306,0.293,0.277,0.155,0.095,south-southwest,1.4,No
2018/12/08,19:00,0.241,0.192,0.305,0.294,0.278,0.154,0.094,south,1.8,No
2018/12/08,19:10,0.240,0.192,0.307,0.294,0.279,0.154,0.095,south-southwest,2.0,No
2018/12/08,19:20,0.241,0.192,0.307,0.295,0.279,0.154,0.094,southwest,2.4,No
2018/12/08,19:30,0.241,0.192,0.306,0.293,0.279,0.154,0.095,west-southwest,3.3,No
2018/12/08,19:40,0.241,0.193,0.306,0.293,0.279,0.155,0.095,west,3.2,No
2018/12/08,19:50,0.241,0.192,0.306,0.293,0.280,0.154,0.095,west,2.5,No
2018/12/08,20:00,0.241,0.193,0.306,0.295,0.279,0.155,0.095,northwest,1.6,No
2018/12/08,20:10,0.242,0.193,0.306,0.294,0.279,0.154,0.095,north-northwest,2.2,No
2018/12/08,20:20,0.241,0.193,0.307,0.293,0.280,0.155,0.095,north-northwest,2.9,No
2018/12/08,20:30,0.241,0.192,0.306,0.293,0.280,0.155,0.095,west-northwest,3.8,No
2018/12/08,20:40,0.241,0.192,0.307,0.294,0.280,0.155,0.094,west-northwest,6.5,No
2018/12/08,20:50,0.242,0.192,0.305,0.294,0.279,0.155,0.094,west-northwest,6.5,No
2018/12/08,21:00,0.240,0.192,0.305,0.294,0.280,0.155,0.095,west-northwest,6.0,No
2018/12/08,21:10,0.241,0.192,0.306,0.293,0.278,0.154,0.095,west-northwest,5.0,No
2018/12/08,21:20,0.241,0.192,0.306,0.294,0.280,0.155,0.094,west-northwest,5.2,No
2018/12/08,21:30,0.240,0.192,0.306,0.294,0.278,0.155,0.094,west-northwest,4.8,No
2018/12/08,21:40,0.241,0.191,0.306,0.294,0.279,0.154,0.094,northwest,4.8,No
2018/12/08,21:50,0.241,0.192,0.307,0.294,0.278,0.155,0.094,west-northwest,3.3,No
2018/12/08,22:00,0.240,0.192,0.305,0.293,0.277,0.155,0.094,west-northwest,4.5,No
2018/12/08,22:10,0.240,0.191,0.306,0.294,0.278,0.155,0.094,west-northwest,6.3,No
2018/12/08,22:20,0.240,0.191,0.305,0.293,0.278,0.153,0.093,west-northwest,6.1,No
2018/12/08,22:30,0.240,0.191,0.304,0.295,0.279,0.155,0.094,west-northwest,7.3,No
2018/12/08,22:40,0.241,0.192,0.305,0.292,0.278,0.153,0.094,west-northwest,8.8,No
2018/12/08,22:50,0.239,0.193,0.306,0.293,0.278,0.155,0.094,west-northwest,8.8,No
2018/12/08,23:00,0.240,0.192,0.306,0.293,0.279,0.154,0.094,northwest,7.3,No
2018/12/08,23:10,0.240,0.191,0.306,0.293,0.279,0.155,0.095,north-northwest,7.4,No
2018/12/08,23:20,0.241,0.191,0.305,0.294,0.279,0.155,0.094,north-northwest,8.4,No
2018/12/08,23:30,0.241,0.191,0.305,0.294,0.278,0.155,0.095,north-northwest,10.3,No
2018/12/08,23:40,0.240,0.191,0.306,0.294,0.280,0.154,0.095,north-northwest,8.6,No
2018/12/08,23:50,0.241,0.192,0.307,0.293,0.280,0.154,0.094,north-northwest,7.3,No
